WX1N Weather Reports


Display with metric or nautical units.
time (UTC)temp
F
wind
direction
speed
MPH
gust
MPH
rain 1hr
in
rain 24hr
in
rain mn
in
humidity
%
barometer
mb
20260510160502 62 0 0.0 0.0 0.00 0.00 0.00 78 1010.6
20260510160003 62 0 0.0 0.0 0.00 0.00 0.00 76 1010.6
20260510155503 63 0 0.0 0.0 0.00 0.00 0.00 77 1010.7
20260510155003 63 0 0.0 0.0 0.00 0.00 0.00 77 1010.6
20260510154503 62 0 0.0 0.0 0.00 0.00 0.00 79 1010.6
20260510154003 62 0 0.0 0.0 0.00 0.00 0.00 78 1010.6
20260510153503 62 0 0.0 0.0 0.00 0.00 0.00 79 1010.6
20260510153003 61 0 0.0 0.0 0.00 0.00 0.00 81 1010.7
20260510152503 60 0 0.0 0.0 0.00 0.00 0.00 79 1010.7
20260510152003 60 0 0.0 0.0 0.00 0.00 0.00 79 1010.6
20260510151503 60 0 0.0 0.0 0.00 0.00 0.00 80 1010.6
20260510151003 61 0 0.0 0.0 0.00 0.00 0.00 78 1010.4
20260510150502 61 0 0.0 0.0 0.00 0.00 0.00 79 1010.5
20260510150003 60 0 0.0 0.0 0.00 0.00 0.00 84 1010.5
20260510145503 59 0 0.0 0.0 0.00 0.00 0.00 81 1010.5
20260510145002 59 0 0.0 0.0 0.00 0.00 0.00 81 1010.5
20260510144503 59 0 0.0 0.0 0.00 0.00 0.00 83 1010.6
20260510144002 59 0 0.0 0.0 0.00 0.00 0.00 82 1010.7
20260510143503 58 0 0.0 0.0 0.00 0.00 0.00 83 1010.7
20260510143002 58 0 0.0 0.0 0.00 0.00 0.00 82 1010.6
20260510142503 58 0 0.0 0.0 0.00 0.00 0.00 82 1010.7
20260510142002 58 0 0.0 0.0 0.00 0.00 0.00 83 1010.5
20260510141503 58 0 0.0 0.0 0.00 0.00 0.00 86 1010.5
20260510141004 57 0 0.0 0.0 0.00 0.00 0.00 84 1010.6
20260510140502 57 0 0.0 0.0 0.00 0.00 0.00 84 1010.5
20260510140003 57 0 0.0 0.0 0.00 0.00 0.00 85 1010.5
20260510135503 57 0 0.0 0.0 0.00 0.00 0.00 85 1010.6
20260510135003 57 0 0.0 0.0 0.00 0.00 0.00 87 1010.5
20260510134503 56 0 0.0 0.0 0.00 0.00 0.00 86 1010.7
20260510134003 56 0 0.0 0.0 0.00 0.00 0.00 86 1010.7
20260510133503 56 0 0.0 0.0 0.00 0.00 0.00 86 1010.7
20260510133003 55 0 0.0 0.0 0.00 0.00 0.00 87 1010.7
20260510132503 55 0 0.0 0.0 0.00 0.00 0.00 87 1010.9
20260510132003 55 0 0.0 0.0 0.00 0.00 0.00 87 1010.8
20260510131502 55 0 0.0 0.0 0.00 0.00 0.00 87 1010.9
20260510131003 55 0 0.0 0.0 0.00 0.00 0.00 87 1010.8
20260510130502 55 0 0.0 0.0 0.00 0.00 0.00 87 1010.6
20260510130003 55 0 0.0 0.0 0.00 0.00 0.00 87 1010.4
20260510125503 55 0 0.0 0.0 0.00 0.00 0.00 87 1010.3
20260510125003 54 0 0.0 0.0 0.00 0.00 0.00 87 1010.5
20260510124503 54 0 0.0 0.0 0.00 0.00 0.00 87 1010.6
20260510124003 54 0 0.0 0.0 0.00 0.00 0.00 86 1010.7
20260510123002 54 0 0.0 0.0 0.00 0.00 0.00 86 1010.7
20260510122503 54 0 0.0 0.0 0.00 0.00 0.00 86 1010.7
20260510122002 53 0 0.0 0.0 0.00 0.00 0.00 85 1010.6
20260510121503 53 0 0.0 0.0 0.00 0.00 0.00 84 1010.6
20260510121003 53 0 0.0 0.0 0.00 0.00 0.00 84 1010.8
20260510120503 53 0 0.0 0.0 0.00 0.00 0.00 82 1010.8
20260510120003 53 0 0.0 0.0 0.00 0.00 0.00 81 1010.8
20260510115503 52 0 0.0 0.0 0.00 0.00 0.00 81 1010.8
20260510115003 52 0 0.0 0.0 0.00 0.00 0.00 80 1010.9
20260510114502 52 0 0.0 0.0 0.00 0.00 0.00 80 1010.7
20260510114003 52 0 0.0 0.0 0.00 0.00 0.00 80 1010.5
20260510113503 52 0 0.0 0.0 0.00 0.00 0.00 79 1010.5
20260510113003 52 0 0.0 0.0 0.00 0.00 0.00 78 1010.3
20260510112503 52 0 0.0 0.0 0.00 0.00 0.00 76 1010.3
20260510112003 52 0 0.0 0.0 0.00 0.00 0.00 75 1010.5
20260510111503 52 0 0.0 0.0 0.00 0.00 0.00 74 1010.6
20260510111002 52 0 0.0 0.0 0.00 0.00 0.00 73 1010.6
20260510110503 51 0 0.0 0.0 0.00 0.00 0.00 72 1010.5
20260510110003 51 0 0.0 0.0 0.00 0.00 0.00 72 1010.3
20260510105503 51 0 0.0 0.0 0.00 0.00 0.00 72 1010.2
20260510105003 51 0 0.0 0.0 0.00 0.00 0.00 72 1010.1
20260510104502 51 0 0.0 0.0 0.00 0.00 0.00 72 1010.1
20260510104003 51 0 0.0 0.0 0.00 0.00 0.00 72 1010.0
20260510103502 51 0 0.0 0.0 0.00 0.00 0.00 71 1009.9
20260510102503 51 0 0.0 0.0 0.00 0.00 0.00 72 1009.9
20260510101503 50 0 0.0 0.0 0.00 0.00 0.00 72 1009.5
20260510101003 50 0 0.0 0.0 0.00 0.00 0.00 72 1009.4
20260510100503 50 0 0.0 0.0 0.00 0.00 0.00 72 1009.1
20260510100003 49 0 0.0 0.0 0.00 0.00 0.00 72 1008.9
20260510095503 49 0 0.0 0.0 0.00 0.00 0.00 72 1008.9
20260510095003 49 0 0.0 0.0 0.00 0.00 0.00 73 1009.0
20260510094503 49 0 0.0 0.0 0.00 0.00 0.00 73 1008.8
20260510094003 49 0 0.0 0.0 0.00 0.00 0.00 73 1008.9
20260510093503 49 0 0.0 0.0 0.00 0.00 0.00 73 1008.9
20260510093003 49 0 0.0 0.0 0.00 0.00 0.00 73 1009.1
20260510092503 49 0 0.0 0.0 0.00 0.00 0.00 73 1009.2
20260510092003 49 0 0.0 0.0 0.00 0.00 0.00 73 1008.7
20260510091502 49 0 0.0 0.0 0.00 0.00 0.00 73 1008.6
20260510090502 49 0 0.0 0.0 0.00 0.00 0.00 73 1008.8
20260510090003 48 0 0.0 0.0 0.00 0.00 0.00 73 1008.7
20260510085003 48 0 0.0 0.0 0.00 0.00 0.00 73 1008.7
20260510084502 48 0 0.0 0.0 0.00 0.00 0.00 73 1009.1
20260510084003 48 0 0.0 0.0 0.00 0.00 0.00 73 1009.1
20260510083503 48 0 0.0 0.0 0.00 0.00 0.00 74 1009.2
20260510083003 48 0 0.0 0.0 0.00 0.00 0.00 74 1009.3
20260510082503 48 0 0.0 0.0 0.00 0.00 0.00 74 1009.4
20260510081003 48 0 0.0 0.0 0.00 0.00 0.00 74 1009.2
20260510080503 48 0 0.0 0.0 0.00 0.00 0.00 74 1009.3
20260510080002 48 0 0.0 0.0 0.00 0.00 0.00 74 1009.4
20260510075503 48 0 0.0 0.0 0.00 0.00 0.00 74 1009.3
20260510075003 48 0 0.0 0.0 0.00 0.00 0.00 74 1009.2
20260510074503 48 0 0.0 0.0 0.00 0.00 0.00 74 1009.3
20260510074003 48 0 0.0 0.0 0.00 0.00 0.00 74 1009.3
20260510073503 49 0 0.0 0.0 0.00 0.00 0.00 74 1009.3
20260510073003 48 0 0.0 0.0 0.00 0.00 0.00 74 1009.3
20260510072003 48 0 0.0 0.0 0.00 0.00 0.00 74 1009.2
20260510071503 48 0 0.0 0.0 0.00 0.00 0.00 74 1009.2
20260510071003 48 0 0.0 0.0 0.00 0.00 0.00 74 1009.1
20260510070502 48 0 0.0 0.0 0.00 0.00 0.00 74 1009.2
20260510070003 48 0 0.0 0.0 0.00 0.00 0.00 74 1009.2
20260510065503 49 0 0.0 0.0 0.00 0.00 0.00 74 1009.2
20260510065003 49 0 0.0 0.0 0.00 0.00 0.00 74 1009.3
20260510064503 49 0 0.0 0.0 0.00 0.00 0.00 74 1009.6
20260510064003 49 0 0.0 0.0 0.00 0.00 0.00 74 1009.4
20260510063503 49 0 0.0 0.0 0.00 0.00 0.00 74 1009.4
20260510062503 48 0 0.0 0.0 0.00 0.00 0.00 74 1009.5
20260510062003 48 0 0.0 0.0 0.00 0.00 0.00 74 1009.4
20260510061503 48 0 0.0 0.0 0.00 0.00 0.00 74 1009.2
20260510061003 48 0 0.0 0.0 0.00 0.00 0.00 75 1009.2
20260510060003 48 0 0.0 0.0 0.00 0.00 0.00 75 1009.3
20260510055503 48 0 0.0 0.0 0.00 0.00 0.00 75 1009.6
20260510055003 48 0 0.0 0.0 0.00 0.00 0.00 75 1009.6
20260510054502 48 0 0.0 0.0 0.00 0.00 0.00 75 1009.6
20260510054003 48 0 0.0 0.0 0.00 0.00 0.00 75 1009.6
20260510053503 48 0 0.0 0.0 0.00 0.00 0.00 75 1009.7
20260510053003 48 0 0.0 0.0 0.00 0.00 0.00 75 1009.7
20260510052504 48 0 0.0 0.0 0.00 0.00 0.00 75 1009.7
20260510052004 48 0 0.0 0.0 0.00 0.00 0.00 75 1009.7
20260510051003 48 0 0.0 0.0 0.00 0.00 0.00 75 1009.6
20260510050503 48 0 0.0 0.0 0.00 0.00 0.00 75 1009.7
20260510050004 48 0 0.0 0.0 0.00 0.00 0.00 75 1009.8
20260510045503 48 0 0.0 0.0 0.00 0.00 0.00 75 1009.9
20260510045003 48 0 0.0 0.0 0.00 0.00 0.00 75 1009.9
20260510044503 48 0 0.0 0.0 0.00 0.00 0.00 75 1009.9
20260510044003 48 0 0.0 0.0 0.00 0.00 0.00 75 1010.0
20260510043503 48 0 0.0 0.0 0.00 0.00 0.00 75 1009.9
20260510043003 48 0 0.0 0.0 0.00 0.00 0.00 75 1009.8
20260510042503 48 0 0.0 0.0 0.00 0.00 0.00 75 1009.8
20260510042003 48 0 0.0 0.0 0.00 0.00 0.00 76 1009.9
20260510041504 48 0 0.0 0.0 0.00 0.00 0.00 76 1009.9
20260510041003 48 0 0.0 0.0 0.00 0.00 0.00 76 1009.9
20260510040503 48 0 0.0 0.0 0.00 0.00 0.00 76 1009.8
20260510040004 48 0 0.0 0.0 0.00 0.00 0.00 76 1010.0
20260510035004 48 0 0.0 0.0 0.00 0.00 0.00 76 1009.8
20260510034503 48 0 0.0 0.0 0.00 0.00 0.00 76 1010.0
20260510034003 48 0 0.0 0.0 0.00 0.00 0.00 76 1009.9
20260510033503 48 0 0.0 0.0 0.00 0.00 0.00 76 1009.8
20260510033003 48 0 0.0 0.0 0.00 0.00 0.00 76 1009.8
20260510032003 48 0 0.0 0.0 0.00 0.00 0.00 76 1010.1
20260510031003 48 0 0.0 0.0 0.00 0.00 0.00 76 1010.0
20260510030003 48 0 0.0 0.0 0.00 0.00 0.00 76 1009.9
20260510025503 48 0 0.0 0.0 0.00 0.00 0.00 76 1010.0
20260510025003 48 0 0.0 0.0 0.00 0.00 0.00 76 1010.0
20260510024503 48 0 0.0 0.0 0.00 0.00 0.00 76 1010.1
20260510024004 48 0 0.0 0.0 0.00 0.00 0.00 77 1010.0
20260510023503 48 0 0.0 0.0 0.00 0.00 0.00 77 1010.2
20260510023004 48 0 0.0 0.0 0.00 0.00 0.00 77 1010.3
20260510022503 48 0 0.0 0.0 0.00 0.00 0.00 77 1010.1
20260510022003 48 0 0.0 0.0 0.00 0.00 0.00 77 1010.2
20260510021503 48 0 0.0 0.0 0.00 0.00 0.00 77 1010.4
20260510021003 48 0 0.0 0.0 0.00 0.00 0.00 77 1010.3
20260510020504 48 0 0.0 0.0 0.00 0.00 0.00 77 1010.3
20260510020003 48 0 0.0 0.0 0.00 0.00 0.00 77 1010.2
20260510015503 48 0 0.0 0.0 0.00 0.00 0.00 77 1010.3
20260510015003 48 0 0.0 0.0 0.00 0.00 0.00 77 1010.4
20260510014503 48 0 0.0 0.0 0.00 0.00 0.00 77 1010.4
20260510014003 48 0 0.0 0.0 0.00 0.00 0.00 77 1010.5
20260510013004 48 0 0.0 0.0 0.00 0.00 0.00 78 1010.3
20260510012503 48 0 0.0 0.0 0.00 0.00 0.00 78 1010.3
20260510012003 48 0 0.0 0.0 0.00 0.00 0.00 78 1010.3
20260510011503 48 0 0.0 0.0 0.00 0.00 0.00 78 1010.3
20260510011003 48 0 0.0 0.0 0.00 0.00 0.00 78 1010.3
20260510010504 48 0 0.0 0.0 0.00 0.00 0.00 78 1010.3
20260510010003 48 0 0.0 0.0 0.00 0.00 0.00 78 1010.3
20260510005503 48 0 0.0 0.0 0.00 0.00 0.00 78 1010.4
20260510005003 48 0 0.0 0.0 0.00 0.00 0.00 78 1010.3
20260510004503 48 0 0.0 0.0 0.00 0.00 0.00 78 1010.3
20260510003503 48 0 0.0 0.0 0.00 0.00 0.00 78 1010.2
20260510003003 48 0 0.0 0.0 0.00 0.00 0.00 78 1010.1
20260510002503 48 0 0.0 0.0 0.00 0.00 0.00 78 1010.0
20260510002003 48 0 0.0 0.0 0.00 0.00 0.00 78 1009.9
20260510001503 48 0 0.0 0.0 0.00 0.00 0.00 78 1009.9
20260510001004 48 0 0.0 0.0 0.00 0.00 0.00 78 1009.9
20260510000503 48 0 0.0 0.0 0.00 0.00 0.00 78 1009.7
20260509235503 48 0 0.0 0.0 0.00 0.00 0.00 78 1009.6
20260509234503 49 0 0.0 0.0 0.00 0.00 0.00 78 1009.6
20260509234003 49 0 0.0 0.0 0.00 0.00 0.00 78 1009.6
20260509233503 49 0 0.0 0.0 0.00 0.00 0.00 78 1009.4
20260509233003 49 0 0.0 0.0 0.00 0.00 0.00 77 1009.4
20260509232504 49 0 0.0 0.0 0.00 0.00 0.00 77 1009.5
20260509232003 49 0 0.0 0.0 0.00 0.00 0.00 77 1009.5
20260509231503 49 0 0.0 0.0 0.00 0.00 0.00 77 1009.5
20260509231003 49 0 0.0 0.0 0.00 0.00 0.00 78 1009.5
20260509230503 49 0 0.0 0.0 0.00 0.00 0.00 78 1009.6
20260509230003 49 0 0.0 0.0 0.00 0.00 0.00 78 1009.6
20260509225503 49 0 0.0 0.0 0.00 0.00 0.00 78 1009.6
20260509225004 49 0 0.0 0.0 0.00 0.00 0.00 77 1009.7
20260509224004 49 0 0.0 0.0 0.00 0.00 0.00 78 1009.6
20260509223503 49 0 0.0 0.0 0.00 0.00 0.00 78 1009.7
20260509222503 49 0 0.0 0.0 0.00 0.00 0.00 78 1009.7
20260509222003 49 0 0.0 0.0 0.00 0.00 0.00 78 1009.7
20260509221503 49 0 0.0 0.0 0.00 0.00 0.00 78 1009.7
20260509221003 49 0 0.0 0.0 0.00 0.00 0.00 78 1009.7
20260509220503 49 0 0.0 0.0 0.00 0.00 0.00 78 1009.8
20260509220003 49 0 0.0 0.0 0.00 0.00 0.00 78 1009.8
20260509215504 49 0 0.0 0.0 0.00 0.00 0.00 79 1009.8
20260509215003 49 0 0.0 0.0 0.00 0.00 0.00 79 1010.0
20260509214504 49 0 0.0 0.0 0.00 0.00 0.00 79 1009.9
20260509213503 49 0 0.0 0.0 0.00 0.00 0.00 79 1010.1
20260509213003 49 0 0.0 0.0 0.00 0.00 0.00 79 1010.1
20260509212503 49 0 0.0 0.0 0.00 0.00 0.00 79 1010.1
20260509212004 49 0 0.0 0.0 0.00 0.00 0.00 79 1010.3
20260509211503 49 0 0.0 0.0 0.00 0.00 0.00 79 1010.2
20260509211004 49 0 0.0 0.0 0.00 0.00 0.00 79 1010.3
20260509210503 49 0 0.0 0.0 0.00 0.00 0.00 79 1010.3
20260509210004 49 0 0.0 0.0 0.00 0.00 0.00 79 1010.3
20260509205003 49 0 0.0 0.0 0.00 0.00 0.00 79 1010.3
20260509204003 49 0 0.0 0.0 0.00 0.00 0.00 79 1010.4
20260509203503 50 0 0.0 0.0 0.00 0.00 0.00 78 1010.3
20260509203003 49 0 0.0 0.0 0.00 0.00 0.00 78 1010.3
20260509202504 49 0 0.0 0.0 0.00 0.00 0.00 78 1010.3
20260509201504 49 0 0.0 0.0 0.00 0.00 0.00 79 1010.3
20260509201003 49 0 0.0 0.0 0.00 0.00 0.00 79 1010.3
20260509200503 49 0 0.0 0.0 0.00 0.00 0.00 79 1010.4
20260509200004 49 0 0.0 0.0 0.00 0.00 0.00 79 1010.3
20260509195503 48 0 0.0 0.0 0.00 0.00 0.00 79 1010.5
20260509194503 48 0 0.0 0.0 0.00 0.00 0.00 79 1010.6
20260509194003 48 0 0.0 0.0 0.00 0.00 0.00 79 1010.6
20260509193003 48 0 0.0 0.0 0.00 0.00 0.00 79 1010.8
20260509192503 48 0 0.0 0.0 0.00 0.00 0.00 80 1010.7
20260509192003 48 0 0.0 0.0 0.00 0.00 0.00 80 1010.8
20260509191504 48 0 0.0 0.0 0.00 0.00 0.00 80 1010.9
20260509191003 48 0 0.0 0.0 0.00 0.00 0.00 80 1010.9
20260509190504 48 0 0.0 0.0 0.00 0.00 0.00 80 1010.9
20260509190003 47 0 0.0 0.0 0.00 0.00 0.00 81 1011.0
20260509185503 47 0 0.0 0.0 0.00 0.00 0.00 80 1011.0
20260509185003 47 0 0.0 0.0 0.00 0.00 0.00 81 1011.1
20260509184503 47 0 0.0 0.0 0.00 0.00 0.00 81 1011.1
20260509184004 47 0 0.0 0.0 0.00 0.00 0.00 81 1011.1
20260509183003 47 0 0.0 0.0 0.00 0.00 0.00 81 1011.2
20260509182503 47 0 0.0 0.0 0.00 0.00 0.00 82 1011.3
20260509182004 47 0 0.0 0.0 0.00 0.00 0.00 82 1011.4
20260509181503 47 0 0.0 0.0 0.00 0.00 0.00 83 1011.4
20260509181004 47 0 0.0 0.0 0.00 0.00 0.00 83 1011.5
20260509180503 47 0 0.0 0.0 0.00 0.00 0.00 83 1011.5
20260509180004 47 0 0.0 0.0 0.00 0.00 0.00 82 1011.5
20260509175503 47 0 0.0 0.0 0.00 0.00 0.00 83 1011.5
20260509175003 47 0 0.0 0.0 0.00 0.00 0.00 83 1011.5
20260509174504 46 0 0.0 0.0 0.00 0.00 0.00 84 1011.6
20260509174003 46 0 0.0 0.0 0.00 0.00 0.00 83 1011.6
20260509173504 47 0 0.0 0.0 0.00 0.00 0.00 83 1011.6
20260509173003 47 0 0.0 0.0 0.00 0.00 0.00 83 1011.8
20260509172503 47 0 0.0 0.0 0.00 0.00 0.00 83 1011.8
20260509172003 47 0 0.0 0.0 0.00 0.00 0.00 83 1011.8
20260509171503 47 0 0.0 0.0 0.00 0.00 0.00 82 1011.9
20260509171004 47 0 0.0 0.0 0.00 0.00 0.00 82 1011.9
20260509170504 46 0 0.0 0.0 0.00 0.00 0.00 82 1012.0
20260509170004 46 0 0.0 0.0 0.00 0.00 0.00 82 1012.0
20260509165503 46 0 0.0 0.0 0.00 0.00 0.00 82 1012.1
20260509165003 46 0 0.0 0.0 0.00 0.00 0.00 82 1012.2
20260509164503 46 0 0.0 0.0 0.00 0.00 0.00 82 1012.2
20260509164003 46 0 0.0 0.0 0.00 0.00 0.00 82 1012.3
20260509163504 46 0 0.0 0.0 0.00 0.00 0.00 82 1012.3
20260509163003 45 0 0.0 0.0 0.00 0.00 0.00 83 1012.4
20260509162504 45 0 0.0 0.0 0.00 0.00 0.00 83 1012.4
20260509161504 45 0 0.0 0.0 0.00 0.00 0.00 83 1012.5
20260509161003 45 0 0.0 0.0 0.00 0.00 0.00 84 1012.6